This is the latest recevied weather packets stored in our database for station/object 9M4GHZ-13. If no packets are shown the sender has not sent any weather packets the latest 10 day(s).
| Time | Temp. | Humidity | Pressure | Rain* | Wind** | Luminosity | Snow |
|---|---|---|---|---|---|---|---|
| 1777551604 | 27.22° C | 91% | 1008.5 hPa | - | - | - | - |
| 1777551005 | 27.22° C | 91% | 1008.6 hPa | - | - | - | - |
| 1777550403 | 27.78° C | 89% | 1008.6 hPa | - | - | - | - |
| 1777549804 | 27.78° C | 89% | 1008.2 hPa | - | - | - | - |
| 1777549205 | 27.78° C | 88% | 1008.2 hPa | - | - | - | - |
| 1777548604 | 27.78° C | 89% | 1008.2 hPa | - | - | - | - |
| 1777548004 | 27.78° C | 88% | 1008.2 hPa | - | - | - | - |
| 1777547404 | 27.78° C | 88% | 1007.8 hPa | - | - | - | - |
| 1777546804 | 27.78° C | 88% | 1007.7 hPa | - | - | - | - |
| 1777546205 | 28.33° C | 87% | 1007.9 hPa | - | - | - | - |
| 1777545605 | 27.78° C | 87% | 1007.8 hPa | - | - | - | - |
| 1777545004 | 28.33° C | 87% | 1007.4 hPa | - | - | - | - |
| 1777544404 | 28.33° C | 85% | 1007.2 hPa | - | - | - | - |
| 1777543805 | 28.33° C | 85% | 1007.3 hPa | - | - | - | - |
| 1777543204 | 28.89° C | 83% | 1007.4 hPa | - | - | - | - |
| 1777542603 | 28.89° C | 82% | 1007.4 hPa | - | - | - | - |
| 1777542005 | 28.89° C | 81% | 1006.8 hPa | - | - | - | - |
| 1777541404 | 28.89° C | 82% | 1006.6 hPa | - | - | - | - |
| 1777540804 | 28.89° C | 81% | 1006.7 hPa | - | - | - | - |
| 1777540204 | 29.44° C | 83% | 1007 hPa | - | - | - | - |
| 1777539604 | 28.89° C | 83% | 1007 hPa | - | - | - | - |
| 1777539004 | 29.44° C | 82% | 1006.9 hPa | - | - | - | - |
| 1777538404 | 30° C | 80% | 1006.8 hPa | - | - | - | - |
| 1777537804 | 30° C | 79% | 1007 hPa | - | - | - | - |
| 1777537204 | 30° C | 80% | 1006.8 hPa | - | - | - | - |
* Rain since midnight (hover to see other rain measurements)
** Current wind speed in m/s (hover to see current wind gust speed)